Skip Page Navigation
NASA JPL Caltech
NASA Logo - Jet Propulsion Laboratory + View the NASA Portal
+ Center for Near-Earth Object Studies
JPL Home Earth Solar System Stars & Galaxies Technology
JPL Solar System Dynamics
BODIES ORBITS EPHEMERIDES TOOLS PHYSICAL DATA DISCOVERY FAQ SITE MAP
IMPORTANT: The SSD Announcement email list is now available. Major changes are coming in the near future, including possible hostname and/or URL changes. To be notified of such changes, subscribe to this email list.

Please visit this page for more details.


JPL Small-Body Database Browser
Search: [ help ]  
5427 Jensmartin (1986 JQ)
Classification: Inner Main-belt Asteroid          SPK-ID: 2005427
Ephemeris | Orbit Diagram | Orbital Elements | Mission Design | Physical Parameters | Discovery Circumstances ]

[ hide orbit diagram ]

For accurate long-term ephemerides, please instead use our Horizons system.This orbit viewer was implemented using two-body methods, and hence should not be used for determining accurate long-term trajectories (over several years or decades) or planetary encounter circumstances.


[ revert to old Java-based viewer ]

Orbital Elements at Epoch 2458600.5 (2019-Apr-27.0) TDB
Reference: JPL 26 (heliocentric ecliptic J2000)
 Element Value Uncertainty (1-sigma)   Units 
e .07428170306229584 3.5473e-08  
a 1.93158016062693 5.4935e-09 au
q 1.788099096694219 6.8081e-08 au
i 20.39479257146789 4.8057e-06 deg
node 219.8399133212243 1.1223e-05 deg
peri 73.30608613864817 3.4704e-05 deg
M 50.71346324715242 3.2639e-05 deg
tp 2458462.369908347611
(2018-Dec-09.86990835)
8.8816e-05 TDB
period 980.545003454331
2.68
4.183e-06
1.145e-08
d
yr
n .3671427611499394 1.5662e-09 deg/d
Q 2.075061224559641 5.9015e-09 au
  Orbit Determination Parameters
   # obs. used (total)      1714  
   data-arc span      25544 days (69.94 yr)  
   first obs. used      1949-11-23  
   last obs. used      2019-10-31  
   planetary ephem.      DE431  
   SB-pert. ephem.      SB431-N16  
   condition code      0  
   norm. resid. RMS      .43771  
   source      ORB  
   producer      Otto Matic  
   solution date      2019-Nov-07 02:45:54  

Additional Information
 Earth MOID = .841853 au 
 Jupiter MOID = 3.01233 au 
 T_jup = 3.833 
[ show covariance matrix ]

Ephemeris | Orbit Diagram | Orbital Elements | Mission Design | Physical Parameters | Discovery Circumstances ]

Physical Parameter Table
Parameter Symbol Value Units Sigma Reference Notes
absolute magnitude H 13.7   n/a MPO452243  
diameter diameter 3.158 km 0.057 urn:nasa:pds:neowise_diameters_albedos::2.0[mainbelt] (http://adsabs.harvard.edu/abs/2011ApJ...741...68M)  
rotation period rot_per 5.810 h n/a LCDB (Rev. 2019-January); Warner et al., 2009 Published Reference List:
[Warner, B.D. (2009) Minor Planet Bull. 36, 7-13.]
[Warner, B.D. (2010) Minor Planet Bull. 37, 161-165.]
[Warner, B.D (2012) Minor Planet Bull. 39, 69-80.]
[Stephens, R.D.; Coley, D.; Warner, B.D. (2014) Minor Planet Bull. 41, 8-13.]
[Warner, B.D. (2015) Minor Planet Bull. 42, 267-276.]
[Warner, B.D. (2017) Minor Planet Bull. 44, 12-19.]
geometric albedo albedo 0.788   0.100 urn:nasa:pds:neowise_diameters_albedos::2.0[mainbelt] (http://adsabs.harvard.edu/abs/2014ApJ...791..121M)  

5427 Jensmartin           Discovered 1986 May 13 by P. Jensen at Brorfelde.
Danish astrophysicist Jens Martin Knudsen (1930-2005) specialized in Mössbauer spectroscopy of meteorites and the exploration of Mars. Through his enthusiastic teaching and public outreach activities, he has inspired several generations of students and helped establish space exploration on the public agenda.
NOTE: some special characters may not display properly (any characters within {} are an attempt to place the proper accent above a character)
Reference: 20050407/MPCPages.arcLast Updated: 2005-04-15

Alternate Designations
 1986 JQ = 1989 QH1 
Ephemeris | Orbit Diagram | Orbital Elements | Mission Design | Physical Parameters | Discovery Circumstances ]
ABOUT SSD CREDITS/AWARDS PRIVACY/COPYRIGHT GLOSSARY LINKS
FirstGov
(server date/time)  
NASA Home Page
Site Manager:   Ryan S. Park
Webmaster  Alan B. Chamberlin